Regional Weather Roundup
Issued by NWS

Home | Current Version | Previous Version | Text Only | Print | Product List | Glossary Off
Versions: 1 2 3 4 5 6 7 8 9 10 11 12 13 14 15 16 17 18 19 20 21 22 23 24 25 26 27 28 29 30 31 32 33 34 35 36 37 38 39 40 41 42 43 44 45 46 47 48 49 50

000
ASUS43 KOAX 220502
RWRNE

WEATHER ROUNDUP FOR NEBRASKA
NATIONAL WEATHER SERVICE OMAHA NE
1100 PM CST WED FEB 21 2018

NOTES: SATELLITE DATA IS BEING USED TO AUGMENT CLOUD COVER ABOVE
       12000 FEET.
       "FAIR" INDICATES FEW OR NO CLOUDS BELOW 12,000 FEET WITH NO
       SIGNIFICANT WEATHER AND/OR OBSTRUCTIONS TO VISIBILITY.


NEZ001>004-019>022-054>056-220600-
NEBRASKA PANHANDLE

CITY           SKY/WX    TMP DP  RH WIND       PRES   REMARKS
SCOTTSBLUFF    PTCLDY    12   6  77 E10       30.20F WCI  -1
ALLIANCE       PTCLDY    13   8  81 S12       30.21F WCI  -1
CHADRON        CLEAR     -6 -10  83 W3        30.23F
GORDON         FAIR      11   4  74 SW3       30.23F
KIMBALL        CLEAR      9   3  78 S9        30.14F WCI  -5
SIDNEY         CLEAR      8   4  83 S7        30.19F WCI  -3
$$

NEZ057>060-069>072-079>082-220600-
SOUTHWEST NEBRASKA

CITY           SKY/WX    TMP DP  RH WIND       PRES   REMARKS
NORTH PLATTE   CLOUDY    22  13  68 E6        30.36S WCI  14
IMPERIAL       CLOUDY    22  15  75 SE9       30.30F WCI  12
LEXINGTON      FLURRIES  25  13  61 E8        30.41R WCI  16
MCCOOK         CLOUDY    25  10  53 E9        30.36F WCI  15
OGALLALA       LGT SNOW  19  15  85 E7        30.29F WCI   9
$$

NEZ005>010-023>029-035>040-094-220600-
NORTH CENTRAL NEBRASKA

CITY           SKY/WX    TMP DP  RH WIND       PRES   REMARKS
VALENTINE      CLEAR      7   0  73 E3        30.34F
AINSWORTH      CLEAR      7   3  84 S7        30.36S WCI  -4
BROKEN BOW     LGT SNOW  22  14  71 SE6       30.38F WCI  14
O`NEILL        CLOUDY    17  10  74 SE6       30.43F WCI   9
ORD            LGT SNOW  20  15  81 SE5       30.42F WCI  13
THEDFORD         N/A      6   3  86 CALM      30.35S
$$

NEZ041-046>049-061>064-073>077-083>087-220600-
SOUTH CENTRAL NEBRASKA

CITY           SKY/WX    TMP DP  RH WIND       PRES   REMARKS
GRAND ISLAND   LGT SNOW  22  14  71 E10       30.45S WCI  11
AURORA         CLOUDY    22  13  69 E8        30.45S WCI  12
HASTINGS       CLOUDY    22   9  57 E10       30.44S WCI  11
HEBRON         LGT SNOW  23  20  89 NE9       30.45F VSB 1   WCI  13
HOLDREGE       FLURRIES  23  11  61 E8        30.40F WCI  14
KEARNEY        FLURRIES  23  10  57 E10       30.44R WCI  12
YORK           CLOUDY    23  16  74 E10       30.46F WCI  12
$$

NEZ011>018-030>034-042>045-220600-
NORTHEAST NEBRASKA

CITY           SKY/WX    TMP DP  RH WIND       PRES   REMARKS
NORFOLK        CLOUDY    21  13  71 E6        30.48F WCI  13
ALBION         CLOUDY    22  14  73 SE6       30.48R WCI  14
BLAIR          CLOUDY    23  17  77 NE8       30.49S WCI  14
COLUMBUS       CLOUDY    22  16  78 E12       30.49F WCI  10
FREMONT        CLOUDY    23  16  73 NE8       30.51S WCI  14
TEKAMAH        CLOUDY    23  14  68 E9        30.54F WCI  13
WAYNE          CLOUDY    20  13  76 E5        30.51F WCI  13
$$

NEZ050>053-065>068-078-088>093-220600-
SOUTHEAST NEBRASKA

CITY           SKY/WX    TMP DP  RH WIND       PRES   REMARKS
LINCOLN        CLOUDY    25  15  66 NE12      30.51S WCI  14
OMAHA EPPLEY   CLOUDY    24  15  68 NE6       30.53F WCI  17
BEATRICE       CLOUDY    26  20  76 NE7       30.47F WCI  19
FALLS CITY     CLOUDY    27  20  75 NE7       30.48R WCI  19
NEBRASKA CITY  CLOUDY    26  22  86 NE9       30.49R WCI  16
PLATTSMOUTH    CLOUDY    24  19  81 NE9       30.50S WCI  14
$$

NEZ044-045-051>053-067-220600-
OMAHA AREA

CITY           SKY/WX    TMP DP  RH WIND       PRES   REMARKS
OMAHA EPPLEY   CLOUDY    24  15  68 NE6       30.53F WCI  17
BLAIR          CLOUDY    23  17  77 NE8       30.49S WCI  14
FREMONT        CLOUDY    23  16  73 NE8       30.51S WCI  14
MILLARD        CLOUDY    26  16  66 E3        30.52S
OFFUTT AFB     CLOUDY    24  16  73 NE6       30.51F WCI  16
PLATTSMOUTH    CLOUDY    24  19  81 NE9       30.50S WCI  14
WAHOO          CLOUDY    24  16  71 NE8       30.51R WCI  15
$$



USA.gov is the U.S. government's official web portal to all federal, state and local government web resources and services.